TimeCST,TemperatureF,Dew PointF,Humidity,Sea Level PressureIn,VisibilityMPH,Wind Direction,Wind SpeedMPH,Gust SpeedMPH,PrecipitationIn,Events,Conditions,WindDirDegrees,DateUTC
12:55 AM,41.0,39.2,93,29.75,4.0,East,8.1,-,N/A,,Overcast,100,2011-11-26 06:55:00
1:15 AM,41.0,39.2,93,29.75,5.0,East,8.1,-,0.01,,Overcast,90,2011-11-26 07:15:00
1:35 AM,39.2,39.2,100,29.74,6.0,East,9.2,-,0.01,,Overcast,90,2011-11-26 07:35:00
1:55 AM,39.2,39.2,100,29.74,4.0,East,6.9,-,0.03,,Overcast,80,2011-11-26 07:55:00
2:15 AM,39.2,39.2,100,29.73,3.0,ENE,8.1,-,0.03,,Overcast,70,2011-11-26 08:15:00
2:35 AM,39.2,39.2,100,29.73,3.0,East,9.2,-,0.07,,Overcast,90,2011-11-26 08:35:00
3:15 AM,39.2,39.2,100,29.72,5.0,East,9.2,-,N/A,,Overcast,90,2011-11-26 09:15:00
3:35 AM,39.2,39.2,100,29.72,4.0,East,6.9,-,N/A,,Overcast,100,2011-11-26 09:35:00
3:55 AM,39.2,39.2,100,29.72,5.0,East,5.8,-,N/A,,Overcast,90,2011-11-26 09:55:00
4:35 AM,39.2,39.2,100,29.71,5.0,East,5.8,-,N/A,,Overcast,90,2011-11-26 10:35:00
4:55 AM,39.2,39.2,100,29.71,7.0,East,5.8,-,0.11,,Overcast,90,2011-11-26 10:55:00
5:15 AM,39.2,39.2,100,29.70,7.0,East,5.8,-,0.03,,Overcast,80,2011-11-26 11:15:00
5:35 AM,39.2,39.2,100,29.70,8.0,East,3.5,-,0.05,,Overcast,80,2011-11-26 11:35:00
5:55 AM,39.2,37.4,93,29.71,8.0,ENE,3.5,-,0.07,,Overcast,70,2011-11-26 11:55:00
6:15 AM,39.2,37.4,93,29.71,10.0,East,5.8,-,0.01,,Overcast,90,2011-11-26 12:15:00
6:35 AM,39.2,39.2,100,29.71,6.0,East,4.6,-,0.04,,Overcast,80,2011-11-26 12:35:00
6:55 AM,39.2,39.2,100,29.70,7.0,East,5.8,-,0.05,,Overcast,90,2011-11-26 12:55:00
7:15 AM,39.2,37.4,93,29.70,6.0,East,4.6,-,N/A,,Overcast,90,2011-11-26 13:15:00
7:35 AM,39.2,39.2,100,29.70,9.0,East,5.8,-,N/A,,Overcast,90,2011-11-26 13:35:00
7:55 AM,39.2,37.4,93,29.69,10.0,East,6.9,-,N/A,,Overcast,80,2011-11-26 13:55:00
8:15 AM,39.2,37.4,93,29.69,10.0,East,4.6,-,N/A,,Overcast,90,2011-11-26 14:15:00
8:35 AM,41.0,39.2,93,29.70,10.0,East,4.6,-,N/A,,Overcast,80,2011-11-26 14:35:00
9:15 AM,41.0,39.2,93,29.69,10.0,East,4.6,-,N/A,,Overcast,80,2011-11-26 15:15:00
10:15 AM,41.0,41.0,100,29.69,10.0,Calm,Calm,-,N/A,,Overcast,0,2011-11-26 16:15:00
10:35 AM,42.8,41.0,93,29.69,10.0,Calm,Calm,-,N/A,,Overcast,0,2011-11-26 16:35:00
10:55 AM,42.8,42.8,100,29.68,10.0,Calm,Calm,-,N/A,,Overcast,0,2011-11-26 16:55:00
11:15 AM,42.8,42.8,100,29.68,10.0,Calm,Calm,-,N/A,,Overcast,0,2011-11-26 17:15:00
11:35 AM,42.8,42.8,100,29.67,10.0,West,4.6,-,N/A,,Overcast,280,2011-11-26 17:35:00
11:55 AM,44.6,42.8,93,29.66,10.0,West,5.8,-,N/A,,Overcast,270,2011-11-26 17:55:00
12:15 PM,44.6,42.8,93,29.66,10.0,WNW,6.9,-,N/A,,Overcast,290,2011-11-26 18:15:00
12:35 PM,42.8,41.0,93,29.67,7.0,West,8.1,-,N/A,,Overcast,270,2011-11-26 18:35:00
12:55 PM,42.8,41.0,93,29.68,0.8,West,6.9,-,N/A,,Overcast,280,2011-11-26 18:55:00
1:15 PM,42.8,42.8,100,29.68,0.5,West,8.1,-,N/A,,Overcast,280,2011-11-26 19:15:00
1:55 PM,42.8,41.0,93,29.68,0.5,West,9.2,-,N/A,,Overcast,270,2011-11-26 19:55:00
2:15 PM,41.0,41.0,100,29.69,0.2,NW,6.9,-,N/A,,Overcast,310,2011-11-26 20:15:00
2:35 PM,41.0,41.0,100,29.69,0.2,NW,9.2,-,N/A,,Overcast,310,2011-11-26 20:35:00
2:56 PM,41.0,39.2,93,29.70,0.8,NW,9.2,-,N/A,,Overcast,320,2011-11-26 20:56:00
3:55 PM,37.4,37.4,100,29.74,1.5,NNW,10.4,16.1,N/A,,Overcast,330,2011-11-26 21:55:00
4:15 PM,37.4,37.4,100,29.75,1.8,NNW,15.0,18.4,N/A,,Overcast,330,2011-11-26 22:15:00
4:35 PM,37.4,35.6,93,29.76,1.5,NNW,12.7,17.3,N/A,,Overcast,330,2011-11-26 22:35:00
4:55 PM,35.6,33.8,93,29.78,1.8,NNW,12.7,16.1,N/A,,Overcast,330,2011-11-26 22:55:00
5:15 PM,35.6,35.6,100,29.80,1.8,NNW,8.1,16.1,N/A,,Overcast,330,2011-11-26 23:15:00
5:35 PM,35.6,33.8,93,29.81,1.8,NW,8.1,-,N/A,,Overcast,320,2011-11-26 23:35:00
6:15 PM,35.6,35.6,100,29.81,3.0,NW,13.8,17.3,N/A,,Overcast,310,2011-11-27 00:15:00
6:35 PM,35.6,33.8,93,29.81,5.0,NW,8.1,16.1,N/A,,Overcast,320,2011-11-27 00:35:00
6:55 PM,35.6,33.8,93,29.83,5.0,NW,8.1,-,N/A,,Overcast,310,2011-11-27 00:55:00
7:15 PM,35.6,33.8,93,29.83,3.0,NW,12.7,-,N/A,,Overcast,310,2011-11-27 01:15:00
7:35 PM,35.6,33.8,93,29.83,6.0,NW,9.2,-,N/A,,Overcast,310,2011-11-27 01:35:00
7:55 PM,35.6,32.0,87,29.84,10.0,NW,10.4,-,N/A,,Overcast,310,2011-11-27 01:55:00
8:15 PM,33.8,32.0,93,29.84,10.0,NW,10.4,-,N/A,,Overcast,310,2011-11-27 02:15:00
8:35 PM,33.8,30.2,87,29.85,10.0,NNW,11.5,18.4,N/A,,Overcast,330,2011-11-27 02:35:00
9:35 PM,33.8,30.2,87,29.86,7.0,NW,11.5,16.1,N/A,,Overcast,320,2011-11-27 03:35:00
10:15 PM,32.0,30.2,93,29.88,1.2,NW,11.5,16.1,N/A,,Overcast,320,2011-11-27 04:15:00
10:35 PM,32.0,32.0,100,29.88,1.2,NW,11.5,-,N/A,,Overcast,310,2011-11-27 04:35:00
10:55 PM,32.0,30.2,93,29.88,2.0,NW,12.7,-,N/A,,Overcast,320,2011-11-27 04:55:00
11:15 PM,32.0,30.2,93,29.88,3.0,NW,13.8,18.4,N/A,,Overcast,320,2011-11-27 05:15:00
11:35 PM,32.0,30.2,93,29.88,3.0,NW,13.8,-,N/A,,Overcast,320,2011-11-27 05:35:00
11:55 PM,32.0,30.2,93,29.88,10.0,NW,12.7,19.6,N/A,,Overcast,320,2011-11-27 05:55:00